This is the latest recevied weather packets stored in our database for station/object N1UNH. If no packets are shown the sender has not sent any weather packets the latest 10 day(s).
| Time | Temp. | Humidity | Pressure | Rain* | Wind** | Luminosity | Snow |
|---|---|---|---|---|---|---|---|
| 1777841431 | 10° C | 41% | 1011.7 hPa | 0 mm | - | 100 W/m² | - |
| 1777841128 | 10° C | 42% | 1011.9 hPa | 0 mm | - | 139 W/m² | - |
| 1777840825 | 10° C | 39% | 1011.6 hPa | 0 mm | - | 89 W/m² | - |
| 1777840523 | 10° C | 39% | 1011.7 hPa | 0 mm | - | 87 W/m² | - |
| 1777840220 | 10° C | 39% | 1011.9 hPa | 0 mm | - | 80 W/m² | - |
| 1777839917 | 10.56° C | 37% | 1011.7 hPa | 0 mm | - | 82 W/m² | - |
| 1777839615 | 10.56° C | 39% | 1011.4 hPa | 0 mm | - | 89 W/m² | - |
| 1777839313 | 11.11° C | 37% | 1011.6 hPa | 0 mm | - | 121 W/m² | - |
| 1777839010 | 11.11° C | 36% | 1011.6 hPa | 0 mm | - | 189 W/m² | - |
| 1777838706 | 10.56° C | 40% | 1011.6 hPa | 0 mm | - | 247 W/m² | - |
| 1777838403 | 10.56° C | 41% | 1011.7 hPa | 0 mm | - | 182 W/m² | - |
| 1777838100 | 10.56° C | 38% | 1011.7 hPa | 0 mm | - | 113 W/m² | - |
| 1777837796 | 10.56° C | 39% | 1011.6 hPa | 0 mm | - | 117 W/m² | - |
| 1777837494 | 11.11° C | 38% | 1011.8 hPa | 0 mm | - | 137 W/m² | - |
| 1777837189 | 11.11° C | 38% | 1011.6 hPa | 0 mm | - | 254 W/m² | - |
| 1777836885 | 10.56° C | 40% | 1011.7 hPa | 0 mm | - | 427 W/m² | - |
| 1777836580 | 10.56° C | 41% | 1011.7 hPa | 0 mm | - | 291 W/m² | - |
| 1777836277 | 10.56° C | 44% | 1011.8 hPa | 0 mm | - | 176 W/m² | - |
| 1777835972 | 10.56° C | 40% | 1011.6 hPa | 0 mm | - | 175 W/m² | - |
| 1777835671 | 11.11° C | 37% | 1011.5 hPa | 0 mm | - | 142 W/m² | - |
| 1777835367 | 10.56° C | 41% | 1011.5 hPa | 0 mm | - | 189 W/m² | - |
| 1777835064 | 10.56° C | 41% | 1011.4 hPa | 0 mm | - | 149 W/m² | - |
| 1777834761 | 11.11° C | 42% | 1011.6 hPa | 0 mm | - | 162 W/m² | - |
| 1777834458 | 11.11° C | 40% | 1011.5 hPa | 0 mm | - | 217 W/m² | - |
| 1777834156 | 10.56° C | 41% | 1011.6 hPa | 0 mm | - | 248 W/m² | - |
* Rain latest hour (hover to see other rain measurements)
** Current wind speed in m/s (hover to see current wind gust speed)